Lapse_Rate
5.4 5.8 5.8 5.9 6.0 5.4 5.4 5.4 5.5 5.6 6.0 6.0 6.1 5.9 5.8 6.1 6.0 6.1 6.1 5.9 5.7 5.8 5.9 6.0 5.8 5.9 6.0 6.1 6.2 6.3 6.2 6.1 6.2 6.2 6.0 5.8 6.1 6.0 6.1 5.9 5.9 5.9 5.4 5.8 5.5
5.4 5.5 5.5 5.6 6.1 5.9 5.5 5.4 5.7 5.8 5.9 6.1 6.1 6.0 5.9 5.9 6.1 6.3 6.3 6.0 5.8 5.8 5.9 5.9 6.0 5.8 5.9 6.0 6.2 6.3 6.4 6.2 6.0 6.2 6.2 5.9 5.8 5.8 6.0 6.0 5.9 6.0 5.6 5.6 5.5
6.0 5.8 5.8 5.7 6.0 6.3 6.1 5.7 6.1 6.0 5.9 6.1 6.2 6.0 5.9 5.9 6.1 6.5 6.4 6.3 6.1 6.0 5.9 6.1 5.9 5.9 6.0 6.0 6.0 6.3 6.5 6.4 6.0 6.1 6.5 6.0 5.7 6.0 6.0 5.7 5.7 5.8 5.7 5.7 5.5
6.5 6.2 6.2 5.8 6.0 6.6 6.5 6.1 6.0 6.2 5.9 6.3 6.1 6.2 5.9 6.1 6.0 6.4 6.3 6.5 6.2 5.9 5.9 5.9 6.1 6.0 6.1 6.0 6.1 6.2 6.4 6.4 6.0 5.8 6.2 6.0 5.8 6.1 6.0 6.0 5.7 5.8 5.8 5.8 5.6
6.6 6.4 6.4 6.1 6.1 6.4 6.6 6.4 6.1 6.2 6.0 6.8 6.6 6.2 6.0 5.8 6.2 6.2 6.6 6.4 6.7 6.2 6.2 6.2 6.1 6.1 6.1 6.1 6.0 6.0 6.1 5.9 6.0 5.6 5.9 6.2 6.3 6.0 6.0 5.9 6.0 5.8 5.8 5.7 5.8
6.8 6.7 6.6 6.6 6.2 6.3 6.5 6.5 6.4 6.2 6.3 6.8 5.7 5.9 6.2 5.9 6.5 6.3 6.5 6.5 6.5 6.6 6.3 6.5 6.4 6.2 6.1 6.1 6.0 6.0 5.9 5.8 5.6 5.6 5.5 5.8 6.0 6.0 6.2 5.8 5.8 5.9 5.8 5.7 5.9
6.8 6.7 6.7 6.6 6.4 6.0 6.3 6.6 6.6 6.6 6.6 6.4 6.7 6.4 6.4 6.1 6.3 6.0 6.4 6.8 6.4 6.4 6.6 6.6 6.3 6.2 6.2 6.1 5.9 6.0 5.6 5.7 5.6 5.7 5.7 5.7 5.4 6.1 6.2 5.9 5.9 5.8 5.8 5.7 5.8
6.9 6.9 6.7 6.5 6.4 6.3 6.1 6.3 6.6 6.8 6.7 6.7 6.5 6.6 6.6 6.2 6.5 5.9 6.0 6.4 6.9 6.1 6.1 6.2 6.0 6.0 6.0 6.0 5.9 5.8 5.5 5.2 5.5 5.5 5.8 5.4 5.7 6.3 6.4 6.1 5.9 5.7 5.6 5.6 5.6
6.9 6.9 6.8 6.6 6.5 6.4 6.3 6.3 6.3 6.8 6.7 6.8 6.5 6.4 6.1 6.4 6.4 6.2 6.1 6.4 6.5 6.7 6.2 5.9 5.8 5.8 5.7 5.8 5.8 5.6 5.3 5.1 5.3 5.3 5.3 5.0 6.1 6.0 6.0 6.3 6.2 5.9 5.7 5.6 5.4
7.0 7.0 6.8 6.7 6.7 6.5 6.4 6.3 6.2 6.4 6.4 6.5 6.5 6.4 6.3 6.8 6.6 6.3 6.3 6.2 6.3 6.5 6.3 6.0 5.7 5.5 5.8 5.3 5.2 5.5 5.4 5.2 5.4 5.8 5.5 5.5 6.3 6.5 6.0 6.1 6.2 6.0 5.8 5.7 5.5
6.8 7.0 6.7 6.5 6.7 6.6 6.6 6.3 6.0 6.1 6.3 6.7 6.6 6.5 6.3 6.6 6.5 6.4 6.4 6.3 6.4 6.4 6.4 6.2 5.8 5.2 5.9 5.8 6.1 6.0 5.9 5.7 5.8 5.9 5.7 5.5 5.7 6.3 6.0 5.4 5.7 6.0 6.1 6.2 6.0
6.5 7.0 7.0 6.9 6.6 6.6 6.7 6.6 6.9 6.8 6.5 6.5 6.8 6.4 6.2 6.4 6.5 6.6 6.3 6.4 6.4 6.1 6.0 6.0 6.0 6.1 6.0 5.7 5.7 5.5 5.4 5.4 5.5 5.6 5.1 5.3 5.3 5.9 6.2 5.8 5.5 5.6 5.9 6.5 6.4
6.7 6.5 6.5 6.7 6.7 7.0 6.7 6.5 6.7 6.5 6.4 5.9 5.9 6.4 6.2 6.4 6.9 6.6 6.4 6.4 6.1 5.9 5.9 5.8 5.6 5.6 5.5 5.7 5.4 5.2 4.9 5.0 5.3 5.5 5.0 4.8 4.8 5.8 6.1 6.2 6.3 5.9 6.0 6.1 6.7
6.6 6.4 6.6 6.5 6.7 6.8 6.4 6.2 6.3 6.4 6.2 5.7 5.9 6.0 6.0 6.1 6.5 6.7 6.7 6.7 6.2 5.8 5.9 5.9 6.0 5.6 5.7 5.8 5.8 5.5 5.6 5.5 5.3 5.4 5.0 5.1 4.3 5.2 5.8 6.2 6.3 6.6 6.5 6.7 6.6
6.4 6.4 6.5 6.6 6.6 6.7 6.5 6.1 6.0 6.3 6.3 6.4 6.1 6.1 6.1 6.2 6.2 6.7 6.5 6.5 6.2 6.1 6.0 5.8 5.9 5.5 5.5 5.8 5.9 5.4 5.9 5.9 5.9 5.6 5.3 5.1 4.5 4.2 5.4 5.8 6.5 7.2 7.2 7.1 6.9
6.4 6.4 6.5 6.6 6.8 6.8 6.6 6.5 6.1 6.8 5.9 6.3 6.2 6.2 6.3 6.0 6.0 6.6 6.5 6.3 6.4 6.3 6.5 6.3 6.1 5.8 5.9 5.8 6.2 6.0 5.8 5.9 5.9 5.7 5.0 4.7 4.6 3.9 4.8 5.6 6.8 7.1 7.3 7.2 6.9
6.7 6.9 6.5 6.7 6.7 6.9 6.6 6.5 6.8 7.0 6.7 5.9 5.8 6.3 6.1 6.0 5.7 6.3 6.5 6.1 6.0 6.0 5.7 5.7 5.5 5.5 5.7 5.6 5.6 5.4 5.3 5.7 5.8 5.7 4.4 5.1 5.0 3.9 4.6 5.0 6.0 7.1 7.2 7.1 6.9
6.6 6.7 6.6 6.6 6.9 6.8 6.2 6.4 7.3 6.7 6.7 6.0 6.0 5.8 6.0 6.0 6.1 6.3 6.6 6.2 6.2 6.0 5.9 5.6 5.4 5.7 5.5 5.4 5.6 5.6 5.7 6.1 5.8 5.1 4.7 5.4 5.4 4.4 4.7 5.3 6.0 6.7 7.1 6.9 6.6
6.4 6.5 6.7 7.0 6.9 7.0 6.0 6.5 7.2 6.7 6.6 5.8 5.9 6.0 5.9 6.0 6.1 6.1 6.3 6.0 6.0 5.7 5.7 5.7 5.4 5.7 5.8 5.6 5.9 5.8 5.6 6.1 6.2 6.2 5.2 6.0 5.3 5.5 5.3 5.0 5.5 6.7 7.0 7.1 7.1
6.1 6.6 6.8 6.8 6.8 6.4 6.4 6.7 7.2 6.7 6.6 6.2 6.3 5.9 5.7 5.6 5.7 5.9 6.1 6.3 6.2 6.3 6.0 5.8 5.8 5.6 6.3 6.3 6.0 6.0 6.0 6.6 6.5 5.7 4.9 5.2 5.0 5.1 5.6 5.9 5.9 6.6 7.2 7.4 7.1
6.8 6.8 6.6 7.0 6.8 6.3 6.1 6.7 6.9 6.7 6.6 6.2 6.3 6.1 5.9 5.7 5.7 6.1 6.0 5.8 6.2 6.1 6.0 5.9 5.8 5.5 5.9 5.8 5.9 6.2 5.8 6.5 6.3 6.4 5.1 4.3 5.3 5.5 5.7 5.9 6.2 6.7 7.3 7.2 7.0
6.7 6.5 6.7 6.8 6.8 6.6 6.1 6.8 6.7 6.7 6.5 6.4 6.5 6.7 6.4 5.8 5.7 6.0 6.0 6.2 6.2 6.5 6.2 6.1 6.0 5.6 6.1 6.4 6.4 6.4 6.4 6.7 6.6 5.6 5.7 5.8 5.2 6.2 6.7 6.7 6.8 7.3 7.7 7.3 7.3
6.6 6.4 6.7 6.7 6.7 6.5 6.4 6.8 6.7 6.7 6.5 6.6 6.8 6.6 6.5 6.2 6.3 6.1 6.3 6.5 6.6 6.8 6.6 6.2 5.6 5.7 5.6 6.0 5.9 5.7 6.2 6.3 6.2 6.5 6.4 6.1 4.9 5.7 6.0 6.5 7.3 7.9 7.9 7.5 7.3
6.5 6.5 6.7 6.9 6.7 6.5 6.2 6.7 6.8 7.0 6.7 6.6 6.8 6.7 6.9 6.5 6.6 6.4 6.2 6.6 6.7 6.8 7.0 6.7 6.5 6.1 5.4 6.1 6.7 6.4 6.2 6.4 6.5 6.4 5.4 6.2 5.1 5.7 6.0 6.8 7.5 8.2 8.3 8.0 7.4
6.3 6.3 6.3 6.7 6.8 7.0 6.7 6.8 6.8 6.5 6.4 6.7 6.9 7.3 7.6 7.0 6.7 7.0 6.2 6.4 6.5 6.9 7.2 6.9 6.7 6.4 6.0 6.1 6.5 6.8 6.7 6.5 6.4 6.6 6.0 5.0 5.6 6.5 6.7 7.2 7.4 7.7 7.9 8.0 7.6
6.6 6.2 6.1 6.2 6.6 6.7 6.7 6.4 6.9 6.5 6.5 6.6 6.7 7.1 7.6 7.8 7.8 7.6 7.5 7.1 7.3 6.9 7.1 7.0 6.8 6.7 6.1 6.5 6.6 6.8 6.6 6.0 5.8 6.2 6.3 6.0 6.0 6.1 6.1 6.7 7.0 7.5 7.9 8.2 8.1
6.7 6.7 6.7 5.8 6.1 6.6 6.1 5.9 6.7 6.8 6.8 7.2 7.5 7.5 7.6 7.7 7.8 7.8 7.6 7.6 7.6 7.6 7.5 7.3 7.0 6.5 5.4 6.5 6.5 6.6 5.1 5.8 6.0 5.8 5.9 5.4 6.1 6.8 6.6 6.7 7.3 7.8 7.8 7.7 7.7
Wind_Speed
30 28 27 24 23 20 18 16 19 19 19 22 20 19 17 12 6 1 5 5 4 1 1 2 3 4 4 3 3 2 3 2 5 4 4 4 1 1 2 5 2 3 4 2 11
32 30 29 27 24 23 20 17 17 21 20 20 21 21 16 15 2 5 5 5 5 4 2 2 1 3 3 2 2 3 3 5 3 4 1 3 1 5 3 3 1 1 2 3 11
33 33 31 29 27 24 22 18 18 23 23 21 22 21 21 11 2 6 13 9 7 5 2 1 3 2 2 2 1 2 5 3 2 2 4 3 1 2 6 3 6 7 6 7 6
36 35 33 31 28 26 23 20 18 18 21 21 23 23 25 4 9 4 15 20 12 6 4 4 3 3 2 2 1 1 5 4 2 4 3 4 5 2 4 5 3 8 9 11 12
36 36 36 34 30 27 24 21 19 17 21 22 22 26 9 5 6 2 3 17 11 6 7 5 4 4 5 3 2 2 3 3 3 6 7 0 4 3 5 4 3 8 9 13 14
36 38 36 35 33 29 26 23 19 18 18 25 27 24 7 16 3 2 9 12 6 5 5 5 6 4 3 3 4 3 3 3 4 2 4 3 2 2 5 3 5 8 11 10 13
38 37 38 36 34 31 27 25 20 17 17 19 25 10 8 11 4 8 12 6 6 6 5 3 3 3 5 2 4 1 2 5 5 2 2 1 5 7 5 4 6 7 6 7 10
39 39 37 36 35 34 28 25 22 19 18 19 25 4 5 3 5 7 6 4 5 3 4 5 1 4 2 1 3 3 1 2 3 6 5 5 11 10 6 8 8 8 7 7 11
32 40 39 37 36 34 31 25 20 17 16 18 9 6 6 7 5 5 4 8 7 4 3 3 4 2 1 3 1 2 3 3 6 6 2 6 7 9 9 9 9 8 9 11 9
24 40 41 39 37 34 30 25 19 14 7 9 3 4 3 9 6 6 2 10 5 8 4 1 3 3 1 4 7 5 3 3 6 4 5 7 13 9 5 6 10 10 10 11 12
32 30 42 40 40 36 24 10 8 3 8 17 16 2 7 8 5 5 5 5 5 3 6 3 4 13 15 4 0 4 4 7 2 6 4 8 17 18 13 6 9 9 9 12 14
20 36 43 41 41 41 21 11 26 4 19 3 10 4 3 4 7 6 8 7 5 8 6 4 17 9 7 3 1 1 1 2 4 6 5 8 14 11 11 8 10 13 11 13 8
30 31 37 42 42 26 24 13 9 13 9 5 4 15 5 6 6 17 12 6 6 12 16 15 2 13 8 5 7 5 7 2 3 6 3 3 10 14 7 12 12 10 13 11 15
30 26 42 45 26 20 18 9 14 4 4 8 8 9 4 6 3 5 10 8 5 18 11 11 5 10 8 14 11 13 8 5 5 3 4 1 7 9 5 15 11 17 16 16 14
29 26 40 44 18 20 28 14 7 4 8 11 6 3 7 8 8 3 3 3 8 7 7 7 11 11 12 7 9 5 6 10 6 7 5 5 6 7 6 12 11 15 17 15 16
29 17 41 22 14 19 23 14 5 4 6 8 9 12 11 5 3 5 9 3 2 4 2 5 2 10 9 6 14 8 4 4 4 2 11 21 9 8 10 7 8 9 14 15 15
22 21 36 18 19 25 16 12 9 10 1 9 13 16 18 10 5 7 18 17 12 9 15 5 7 3 1 6 4 9 5 3 5 5 10 7 8 21 7 8 11 15 13 14 11
16 34 27 13 28 21 16 15 8 5 8 4 13 17 18 16 6 4 13 12 20 4 6 10 5 13 6 7 2 15 13 4 6 5 6 3 8 8 11 17 17 15 14 8 9
23 18 18 18 27 18 17 16 9 8 8 13 22 20 7 10 8 5 8 12 16 11 7 6 7 1 6 7 10 4 15 5 3 2 2 5 9 6 8 9 9 15 16 15 10
17 13 15 28 26 16 16 11 5 6 8 17 6 11 16 21 8 12 12 8 6 17 2 3 1 2 3 5 9 8 7 5 6 5 6 6 6 8 1 10 12 17 16 11 8
12 10 19 27 19 14 18 5 5 3 3 7 5 6 9 16 10 14 11 1 8 8 8 3 3 3 3 8 13 7 7 6 2 4 4 4 8 8 16 14 15 17 9 9 9
4 5 20 23 13 10 14 10 5 5 5 5 5 4 9 18 7 12 9 7 9 11 14 10 2 4 8 4 7 14 18 14 6 6 3 1 13 5 6 8 8 14 9 6 6
7 12 16 21 8 12 7 6 4 5 4 5 4 3 3 9 5 5 7 1 5 13 9 10 6 5 3 3 3 9 12 14 21 5 16 3 19 4 5 8 7 8 7 5 4
9 10 9 3 2 17 16 11 7 4 4 5 6 5 6 5 6 7 5 1 1 7 11 15 4 11 18 6 4 8 15 18 14 8 25 18 36 13 8 5 8 8 8 7 7
3 5 3 8 7 15 7 6 14 6 3 3 4 5 9 5 3 4 4 1 1 6 5 5 7 7 14 9 3 2 9 18 22 27 9 30 27 28 14 9 10 7 7 6 6
5 6 3 5 18 20 10 13 19 5 5 2 10 7 4 8 7 8 7 4 5 5 7 5 3 4 14 12 19 18 13 13 25 27 24 32 28 18 8 9 8 9 8 10 9
1 3 6 13 13 14 5 13 8 9 9 5 11 7 3 6 7 7 5 3 4 4 5 5 4 4 7 5 7 11 32 23 17 17 22 22 36 9 13 12 14 10 11 13 10
Wind_Direction
213 213 213 206 202 204 203 207 210 198 199 199 198 198 186 156 133 87 203 224 184 198 80 344 12 352 25 49 23 102 63 186 187 137 296 318 164 28 57 114 51 1 156 259 143
210 210 211 207 205 205 205 204 212 199 192 197 198 198 173 143 110 243 228 213 213 188 112 152 99 20 33 359 14 100 141 215 186 157 175 279 251 161 116 121 39 317 354 100 141
211 208 207 209 204 204 205 204 208 203 193 188 196 191 154 141 73 242 223 212 190 162 116 108 102 70 51 342 359 139 193 173 253 138 63 331 59 343 128 242 211 198 176 153 153
214 207 202 202 201 201 202 202 205 201 193 188 187 173 155 138 212 223 213 195 181 156 119 114 75 108 133 209 258 199 257 193 252 359 48 344 314 288 191 235 278 198 160 162 174
212 209 203 194 199 198 199 201 201 201 187 192 195 156 131 184 241 230 192 171 154 142 164 148 136 135 182 199 148 216 258 235 250 312 307 330 257 241 247 284 44 133 154 178 186
210 209 203 197 190 193 193 196 201 198 193 185 194 156 146 210 184 216 169 149 146 131 157 151 183 188 129 186 185 270 255 294 307 330 302 286 285 38 248 140 130 161 178 190 193
206 205 202 198 187 187 188 190 197 196 194 191 169 168 188 193 150 148 136 163 152 146 140 191 132 155 127 161 230 221 302 294 265 262 270 165 294 237 230 136 173 201 196 199 210
206 202 199 195 187 182 183 186 192 195 197 191 163 151 233 187 152 124 113 85 129 125 87 159 106 110 161 252 56 141 44 211 274 183 241 169 256 234 189 154 204 204 222 221 221
222 197 195 189 184 178 175 177 181 181 194 184 157 190 208 132 141 179 143 154 130 104 17 22 114 131 85 132 42 259 204 210 305 206 178 191 257 262 199 182 209 213 212 218 231
221 204 190 186 179 176 166 167 166 150 120 84 86 170 210 196 152 171 209 144 140 129 79 87 107 143 108 165 204 193 201 208 207 246 196 235 257 268 306 226 214 218 223 215 218
225 233 187 179 174 167 154 149 129 147 194 190 186 182 144 130 90 188 176 106 97 75 160 187 179 209 198 166 299 161 184 207 227 245 181 227 251 254 253 254 255 241 230 227 223
228 207 182 173 172 162 156 182 179 177 178 231 177 133 128 139 157 208 154 156 153 182 127 156 221 200 142 153 173 22 140 262 290 261 179 261 260 254 238 245 228 236 239 231 219
202 212 185 170 165 161 168 189 150 119 158 202 152 178 165 145 163 186 165 147 167 191 195 202 261 173 163 161 205 214 216 203 248 338 248 297 272 266 246 239 243 241 236 234 222
203 212 180 164 160 164 168 187 162 130 106 172 172 201 151 138 176 148 190 150 188 201 178 226 231 175 183 210 183 232 173 190 251 311 246 94 283 262 256 238 233 243 235 230 231
191 201 178 165 149 171 168 169 134 65 161 170 164 139 138 161 138 221 182 71 162 157 164 206 174 179 198 181 159 228 170 199 224 251 331 241 272 270 222 241 240 245 247 238 231
199 231 171 163 151 157 151 137 91 116 229 170 141 168 146 173 143 121 169 88 127 145 284 200 54 184 191 167 186 147 80 60 63 175 254 244 216 247 239 211 252 241 246 245 233
183 229 166 157 157 151 142 151 154 191 332 150 168 165 170 167 138 163 183 185 182 184 208 178 202 335 44 166 142 176 144 215 215 201 239 189 209 244 271 279 249 258 253 248 239
177 193 161 155 146 141 163 152 188 151 190 196 152 150 184 150 182 143 163 200 212 184 174 204 205 196 192 208 150 196 195 204 209 198 254 124 229 243 220 237 244 244 253 264 249
170 159 154 148 147 154 158 171 173 176 167 146 143 163 142 176 150 134 184 203 205 187 176 176 236 104 200 168 160 174 213 200 357 123 26 219 277 289 255 262 260 259 253 254 245
196 140 149 147 151 162 162 158 116 153 134 136 139 169 176 173 145 180 169 195 183 189 120 185 223 180 210 140 212 169 140 190 210 219 246 246 264 237 240 243 254 261 250 242 240
133 130 150 143 153 164 172 131 127 136 101 139 140 133 167 177 163 184 188 10 162 151 173 107 135 267 146 207 192 192 207 225 327 175 218 269 257 210 215 222 231 246 276 247 247
122 121 147 144 161 168 170 138 115 125 69 91 102 98 147 167 168 185 188 165 181 150 195 190 201 215 219 215 226 234 216 198 211 207 260 32 264 177 216 266 264 270 269 242 226
111 114 142 151 154 157 132 107 106 129 132 138 121 144 136 149 137 166 155 144 167 173 166 161 215 238 303 298 217 214 223 242 235 291 243 168 255 201 235 253 256 257 242 215 214
121 130 133 91 99 144 145 143 119 89 100 102 111 86 98 95 17 154 152 40 81 193 174 166 185 210 232 236 170 203 219 222 244 230 244 240 263 250 267 286 294 274 252 207 192
52 114 107 146 143 134 101 124 136 125 65 139 54 133 132 118 83 128 133 108 305 200 203 213 218 226 244 237 228 312 223 209 215 232 248 248 253 253 248 257 263 254 277 244 246
112 139 66 104 141 137 136 177 152 116 137 166 123 139 153 144 174 177 132 151 183 169 185 188 252 228 260 262 256 247 237 248 222 226 234 245 260 253 236 217 241 232 228 243 231
50 46 99 132 146 141 175 164 152 122 17 121 128 112 167 111 113 142 114 129 76 165 162 157 181 234 264 240 313 246 236 236 250 246 229 242 245 270 249 228 227 233 211 227 233